Gastonia, NC

6:09 AM EST on January 23, 2017 (GMT -0500)
Gastonia Municipal

Weather History for KAKH - January, 2013

Change the Weather History Date:

Thursday, January 24, 2013

  Actual Average (KCLT) Record (KCLT)
Temperature  
Mean Temperature 38 °F -  
Max Temperature 50 °F 50 °F 74 °F (1967)
Min Temperature 26 °F 32 °F 7 °F (1963)
Degree Days  
Heating Degree Days 26    
Moisture  
Dew Point 17 °F    
Average Humidity 45    
Maximum Humidity 82    
Minimum Humidity 19    
Precipitation  
Precipitation 0.00 in - - ()
Sea Level Pressure  
Sea Level Pressure 30.23 in    
Wind  
Wind Speed 7 mph (NE)    
Max Wind Speed 21 mph    
Max Gust Speed 29 mph    
Visibility 10 miles    
Events      
Averages and records for this station are not official NWS values.
T = Trace of Precipitation, MM = Missing Value Source: NWS Daily Summary

Daily Weather History Graph

Daily Weather History Graph

Search for Another Location

Airport or City:

Trip Planner

Search our weather history database for the weather conditions in past years. The results will help you decide how hot, cold, wet, or windy it might be!

Date:

Astronomy

Jan. 24, 2013 Rise Set
Actual Time 7:28 AM EST 5:45 PM EST
Civil Twilight 7:01 AM EST 6:12 PM EST
Nautical Twilight 6:31 AM EST 6:42 PM EST
Astronomical Twilight 6:00 AM EST 7:13 PM EST
Moon 3:47 PM EST (1/24) 5:23 AM EST (1/24)
Length of Visible Light 11h 10m
Length of Day
10h 16m
Waxing Gibbous, 94% of the Moon is Illuminated
Jan 24
Waxing Gibbous
Jan 26
Full
Feb 3
Last Quarter
Feb 10
New
Feb 17
First Quarter

Hourly Weather History & Observations

Time (EST) Temp. Windchill Dew Point Humidity Pressure Visibility Wind Dir Wind Speed Gust Speed Precip Events Conditions
12:54 AM 37.9 °F 35.5 °F 27.0 °F 65% 30.03 in 10.0 mi SW 3.5 mph - N/A   Clear
1:54 AM 39.0 °F 33.4 °F 28.0 °F 65% 30.01 in 10.0 mi SSW 8.1 mph - N/A   Clear
2:54 AM 39.0 °F 34.8 °F 28.0 °F 65% 30.00 in 10.0 mi SSW 5.8 mph - N/A   Clear
3:54 AM 39.0 °F 36.8 °F 28.9 °F 67% 29.99 in 10.0 mi SW 3.5 mph - N/A   Clear
4:54 AM 37.9 °F 35.5 °F 28.9 °F 70% 29.99 in 10.0 mi Variable 3.5 mph - N/A   Clear
5:54 AM 39.0 °F 36.8 °F 30.0 °F 70% 30.01 in 10.0 mi WSW 3.5 mph - N/A   Clear
6:54 AM 34.0 °F 31.0 °F 28.9 °F 82% 30.04 in 10.0 mi WSW 3.5 mph - N/A   Clear
7:54 AM 37.0 °F - 30.9 °F 79% 30.08 in 10.0 mi Calm Calm - N/A   Clear
8:54 AM 46.9 °F - 30.0 °F 52% 30.12 in 10.0 mi Variable 5.8 mph - N/A   Clear
9:54 AM 48.0 °F - 23.0 °F 37% 30.17 in 10.0 mi Variable 5.8 mph - N/A   Clear
10:54 AM 50.0 °F - 9.0 °F 19% 30.19 in 10.0 mi North 9.2 mph 19.6 mph N/A   Clear
11:54 AM 50.0 °F - 10.0 °F 20% 30.21 in 10.0 mi NNE 11.5 mph - N/A   Clear
12:54 PM 48.9 °F - 18.0 °F 29% 30.25 in 10.0 mi NE 15.0 mph 21.9 mph N/A   Clear
1:54 PM 46.9 °F - 14.0 °F 27% 30.27 in 10.0 mi NNE 13.8 mph 24.2 mph N/A   Clear
2:54 PM 44.1 °F 35.7 °F 12.0 °F 27% 30.29 in 10.0 mi ENE 20.7 mph 28.8 mph N/A   Clear
3:54 PM 41.0 °F 32.8 °F 10.0 °F 28% 30.33 in 10.0 mi NNE 16.1 mph 20.7 mph N/A   Clear
4:54 PM 37.9 °F 30.5 °F 8.1 °F 29% 30.37 in 10.0 mi NE 11.5 mph - N/A   Clear
5:54 PM 34.0 °F 25.5 °F 7.0 °F 32% 30.40 in 10.0 mi NE 11.5 mph - N/A   Clear
6:54 PM 32.0 °F 23.0 °F 3.9 °F 31% 30.43 in 10.0 mi NE 11.5 mph 19.6 mph N/A   Clear
7:54 PM 30.0 °F 21.7 °F 3.9 °F 33% 30.45 in 10.0 mi ENE 9.2 mph - N/A   Clear
8:54 PM 28.9 °F 19.2 °F 3.9 °F 35% 30.46 in 10.0 mi NE 11.5 mph - N/A   Clear
9:54 PM 28.0 °F 20.8 °F 5.0 °F 38% 30.48 in 10.0 mi ENE 6.9 mph - N/A   Clear
10:54 PM 27.0 °F 21.6 °F 6.1 °F 41% 30.49 in 10.0 mi ENE 4.6 mph - N/A   Clear
11:54 PM 26.1 °F 20.5 °F 6.1 °F 43% 30.50 in 10.0 mi ENE 4.6 mph - N/A   Clear